| time (UTC) | temp F | wind direction | speed MPH | gust MPH | rain 1hr in | rain 24hr in | rain mn in | humidity % | barometer mb |
| 20260904103749 | 53 | 184 | 0.0 | 0.0 | 0.00 | 0.01 | 0.01 | 98 | 1015.7 |
| 20260904103243 | 53 | 155 | 0.0 | 0.0 | 0.00 | 0.01 | 0.01 | 98 | 1015.7 |
| 20260904102739 | 53 | 174 | 0.0 | 0.0 | 0.00 | 0.01 | 0.01 | 98 | 1015.7 |
| 20260904102235 | 53 | 148 | 0.0 | 0.0 | 0.00 | 0.01 | 0.01 | 98 | 1015.6 |
| 20260904101731 | 53 | 159 | 0.0 | 0.0 | 0.00 | 0.01 | 0.01 | 98 | 1015.7 |
| 20260904101227 | 53 | 153 | 0.0 | 0.0 | 0.00 | 0.01 | 0.01 | 98 | 1015.5 |
| 20260904100723 | 53 | 149 | 0.0 | 0.0 | 0.00 | 0.01 | 0.01 | 98 | 1015.5 |
| 20260904100219 | 53 | 181 | 0.0 | 0.0 | 0.00 | 0.01 | 0.01 | 98 | 1015.4 |
| 20260904095718 | 53 | 194 | 0.0 | 0.0 | 0.00 | 0.01 | 0.01 | 98 | 1015.6 |
| 20260904095213 | 53 | 187 | 0.0 | 0.0 | 0.00 | 0.01 | 0.01 | 98 | 1015.4 |
| 20260904094708 | 53 | 176 | 0.0 | 0.0 | 0.00 | 0.01 | 0.01 | 98 | 1015.6 |
| 20260904094203 | 53 | 183 | 0.0 | 0.0 | 0.00 | 0.01 | 0.01 | 98 | 1015.6 |
| 20260904093700 | 53 | 183 | 0.0 | 0.0 | 0.00 | 0.01 | 0.01 | 98 | 1015.4 |
| 20260904093159 | 53 | 182 | 0.0 | 0.0 | 0.00 | 0.01 | 0.01 | 98 | 1015.5 |
| 20260904092655 | 53 | 185 | 0.0 | 0.0 | 0.00 | 0.01 | 0.01 | 98 | 1015.4 |
| 20260904092151 | 53 | 181 | 0.0 | 0.0 | 0.00 | 0.01 | 0.01 | 98 | 1015.6 |
| 20260904091647 | 53 | 189 | 0.0 | 0.0 | 0.00 | 0.01 | 0.01 | 98 | 1015.5 |
| 20260904091147 | 53 | 196 | 0.0 | 0.0 | 0.00 | 0.01 | 0.01 | 98 | 1015.7 |
| 20260904090642 | 53 | 201 | 0.0 | 0.0 | 0.00 | 0.01 | 0.01 | 98 | 1015.6 |
| 20260904090138 | 53 | 194 | 0.0 | 0.0 | 0.00 | 0.01 | 0.01 | 98 | 1015.7 |
| 20260904085637 | 53 | 194 | 0.0 | 0.0 | 0.00 | 0.01 | 0.01 | 98 | 1015.6 |
| 20260904085132 | 53 | 200 | 0.0 | 0.0 | 0.07 | 0.01 | 0.01 | 98 | 1015.5 |
| 20260904084627 | 54 | 217 | 0.0 | 0.0 | 0.07 | 0.01 | 0.01 | 98 | 1015.7 |
| 20260904084124 | 53 | 215 | 0.0 | 0.0 | 0.00 | 0.00 | 0.00 | 98 | 1015.5 |
| 20260904083620 | 54 | 183 | 0.0 | 0.0 | 0.00 | 0.00 | 0.00 | 98 | 1015.5 |
| 20260904083115 | 54 | 155 | 0.0 | 0.0 | 0.00 | 0.00 | 0.00 | 98 | 1015.6 |
| 20260904082610 | 54 | 155 | 0.0 | 0.0 | 0.00 | 0.00 | 0.00 | 98 | 1015.5 |
| 20260904082106 | 54 | 161 | 0.0 | 0.0 | 0.00 | 0.00 | 0.00 | 98 | 1015.7 |
| 20260904081601 | 54 | 171 | 0.0 | 0.0 | 0.00 | 0.00 | 0.00 | 98 | 1015.3 |
| 20260904081056 | 54 | 142 | 0.0 | 0.0 | 0.00 | 0.00 | 0.00 | 98 | 1015.3 |
| 20260904080552 | 54 | 192 | 0.0 | 0.0 | 0.00 | 0.00 | 0.00 | 98 | 1015.2 |
| 20260904080048 | 54 | 189 | 0.0 | 0.0 | 0.00 | 0.00 | 0.00 | 98 | 1015.2 |
| 20260904075544 | 54 | 192 | 0.0 | 0.0 | 0.00 | 0.00 | 0.00 | 98 | 1015.3 |
| 20260904075044 | 54 | 191 | 0.0 | 0.0 | 0.00 | 0.00 | 0.00 | 98 | 1015.5 |
| 20260904074543 | 54 | 183 | 0.0 | 0.0 | 0.00 | 0.00 | 0.00 | 98 | 1015.6 |
| 20260904074038 | 54 | 202 | 0.0 | 0.0 | 0.00 | 0.00 | 0.00 | 98 | 1015.5 |
| 20260904073533 | 54 | 204 | 0.0 | 0.0 | 0.00 | 0.00 | 0.00 | 98 | 1015.5 |
| 20260904073029 | 54 | 212 | 0.0 | 0.0 | 0.00 | 0.00 | 0.00 | 98 | 1015.6 |
| 20260904072525 | 54 | 209 | 0.0 | 0.0 | 0.00 | 0.00 | 0.00 | 98 | 1015.7 |
| 20260904072020 | 54 | 206 | 0.0 | 0.0 | 0.00 | 0.00 | 0.00 | 98 | 1015.8 |
| 20260904071515 | 54 | 202 | 0.0 | 0.0 | 0.00 | 0.00 | 0.00 | 98 | 1015.7 |
| 20260904071010 | 54 | 205 | 0.0 | 0.0 | 0.00 | 0.00 | 0.00 | 98 | 1015.5 |
| 20260904070508 | 54 | 206 | 0.0 | 0.0 | 0.07 | 0.00 | 0.00 | 98 | 1015.5 |
| 20260904070004 | 54 | 207 | 0.0 | 0.0 | 0.07 | 0.61 | 0.61 | 98 | 1015.7 |
| 20260904065459 | 54 | 197 | 0.0 | 0.0 | 0.00 | 0.60 | 0.60 | 98 | 1015.7 |
| 20260904064955 | 54 | 197 | 0.0 | 0.0 | 0.07 | 0.60 | 0.60 | 98 | 1015.7 |
| 20260904064450 | 54 | 196 | 0.0 | 0.0 | 0.07 | 0.60 | 0.60 | 98 | 1015.7 |
| 20260904063945 | 54 | 192 | 0.0 | 0.0 | 0.00 | 0.59 | 0.59 | 98 | 1015.6 |
| 20260904063442 | 54 | 195 | 0.0 | 0.0 | 0.00 | 0.59 | 0.59 | 98 | 1015.5 |
| 20260904062937 | 54 | 195 | 0.0 | 0.0 | 0.00 | 0.59 | 0.59 | 98 | 1015.5 |
| 20260904062433 | 54 | 195 | 0.0 | 0.0 | 0.00 | 0.59 | 0.59 | 98 | 1015.6 |
| 20260904061928 | 54 | 199 | 0.0 | 0.0 | 0.00 | 0.59 | 0.59 | 98 | 1015.4 |
| 20260904061424 | 54 | 189 | 0.0 | 0.0 | 0.07 | 0.59 | 0.59 | 98 | 1015.5 |
| 20260904060920 | 54 | 191 | 0.0 | 0.0 | 0.07 | 0.59 | 0.59 | 98 | 1015.4 |
| 20260904060416 | 54 | 193 | 0.0 | 0.0 | 0.00 | 0.58 | 0.58 | 98 | 1015.5 |
| 20260904055911 | 54 | 195 | 0.0 | 0.0 | 0.00 | 0.58 | 0.58 | 98 | 1015.5 |
| 20260904055407 | 54 | 192 | 0.0 | 0.0 | 0.00 | 0.58 | 0.58 | 98 | 1015.3 |
| 20260904054902 | 54 | 188 | 0.0 | 0.0 | 0.00 | 0.58 | 0.58 | 98 | 1015.5 |
| 20260904054358 | 54 | 191 | 0.0 | 0.0 | 0.00 | 0.58 | 0.58 | 98 | 1015.4 |
| 20260904053854 | 54 | 185 | 0.0 | 0.0 | 0.00 | 0.58 | 0.58 | 98 | 1015.5 |
| 20260904053352 | 54 | 188 | 0.0 | 0.0 | 0.00 | 0.58 | 0.58 | 98 | 1015.5 |
| 20260904052849 | 54 | 178 | 0.0 | 0.0 | 0.00 | 0.58 | 0.58 | 98 | 1015.5 |
| 20260904052345 | 54 | 156 | 0.0 | 0.0 | 0.00 | 0.58 | 0.58 | 98 | 1015.5 |
| 20260904051841 | 54 | 182 | 0.0 | 0.0 | 0.00 | 0.58 | 0.58 | 98 | 1015.3 |
| 20260904051337 | 54 | 183 | 0.0 | 0.0 | 0.00 | 0.58 | 0.58 | 98 | 1015.3 |
| 20260904050831 | 54 | 147 | 0.0 | 0.0 | 0.00 | 0.58 | 0.58 | 98 | 1015.5 |
| 20260904050328 | 54 | 176 | 0.0 | 0.0 | 0.00 | 0.58 | 0.58 | 98 | 1015.2 |
| 20260904045828 | 54 | 146 | 0.0 | 0.0 | 0.00 | 0.58 | 0.58 | 98 | 1015.5 |
| 20260904045323 | 54 | 190 | 0.0 | 0.0 | 0.00 | 0.58 | 0.58 | 98 | 1015.6 |
| 20260904044823 | 54 | 195 | 0.0 | 0.0 | 0.00 | 0.58 | 0.58 | 98 | 1015.5 |
| 20260904044320 | 54 | 188 | 0.0 | 0.0 | 0.00 | 0.58 | 0.58 | 98 | 1015.7 |
| 20260904043815 | 54 | 210 | 0.0 | 0.0 | 0.00 | 0.58 | 0.58 | 98 | 1015.5 |
| 20260904043312 | 54 | 198 | 0.0 | 0.0 | 0.00 | 0.58 | 0.58 | 98 | 1015.6 |
| 20260904042806 | 54 | 199 | 0.0 | 0.0 | 0.00 | 0.58 | 0.58 | 98 | 1015.6 |
| 20260904042306 | 54 | 187 | 0.0 | 0.0 | 0.00 | 0.58 | 0.58 | 98 | 1015.4 |
| 20260904041802 | 54 | 171 | 0.0 | 0.0 | 0.00 | 0.58 | 0.58 | 98 | 1015.4 |
| 20260904041259 | 54 | 188 | 0.0 | 0.0 | 0.00 | 0.58 | 0.58 | 97 | 1015.5 |
| 20260904040754 | 54 | 192 | 0.0 | 0.0 | 0.00 | 0.58 | 0.58 | 97 | 1015.4 |
| 20260904040249 | 54 | 147 | 0.0 | 0.0 | 0.00 | 0.58 | 0.58 | 97 | 1015.4 |
| 20260904035746 | 54 | 184 | 0.0 | 0.0 | 0.00 | 0.58 | 0.58 | 97 | 1015.4 |
| 20260904035241 | 54 | 178 | 0.0 | 0.0 | 0.00 | 0.58 | 0.58 | 97 | 1015.4 |
| 20260904034739 | 54 | 182 | 0.0 | 0.0 | 0.00 | 0.58 | 0.58 | 97 | 1015.4 |
| 20260904034236 | 54 | 174 | 0.0 | 0.0 | 0.00 | 0.58 | 0.58 | 97 | 1015.5 |
| 20260904033731 | 54 | 155 | 0.0 | 0.0 | 0.00 | 0.58 | 0.58 | 97 | 1015.1 |
| 20260904033228 | 54 | 151 | 0.0 | 0.0 | 0.00 | 0.58 | 0.58 | 97 | 1015.3 |
| 20260904032724 | 55 | 137 | 0.0 | 0.0 | 0.00 | 0.58 | 0.58 | 97 | 1015.2 |
| 20260904032222 | 55 | 135 | 0.0 | 5.0 | 0.00 | 0.58 | 0.58 | 97 | 1015.1 |
| 20260904031717 | 55 | 151 | 0.0 | 0.0 | 0.00 | 0.58 | 0.58 | 97 | 1014.9 |
| 20260904031213 | 55 | 148 | 0.0 | 0.0 | 0.00 | 0.58 | 0.58 | 97 | 1015.0 |
| 20260904030709 | 55 | 165 | 0.0 | 0.0 | 0.00 | 0.58 | 0.58 | 97 | 1014.8 |
| 20260904030204 | 55 | 183 | 0.0 | 0.0 | 0.00 | 0.58 | 0.58 | 97 | 1014.9 |
| 20260904025700 | 55 | 147 | 0.0 | 0.0 | 0.00 | 0.58 | 0.58 | 97 | 1014.8 |
| 20260904025155 | 55 | 176 | 0.0 | 0.0 | 0.00 | 0.58 | 0.58 | 96 | 1014.9 |
| 20260904024650 | 55 | 197 | 0.0 | 0.0 | 0.07 | 0.58 | 0.58 | 96 | 1014.9 |
| 20260904024146 | 55 | 210 | 0.0 | 0.0 | 0.07 | 0.58 | 0.58 | 96 | 1015.1 |
| 20260904023642 | 55 | 166 | 0.0 | 0.0 | 0.00 | 0.57 | 0.57 | 96 | 1014.9 |
| 20260904023138 | 55 | 158 | 0.0 | 0.0 | 0.00 | 0.57 | 0.57 | 96 | 1014.9 |
| 20260904022637 | 55 | 133 | 0.0 | 0.0 | 0.00 | 0.57 | 0.57 | 96 | 1014.9 |
| 20260904022134 | 55 | 201 | 0.0 | 0.0 | 0.00 | 0.57 | 0.57 | 96 | 1014.9 |
| 20260904021630 | 55 | 206 | 0.0 | 0.0 | 0.00 | 0.57 | 0.57 | 96 | 1015.1 |
| 20260904021119 | 55 | 196 | 0.0 | 0.0 | 0.00 | 0.57 | 0.57 | 95 | 1014.8 |
| 20260904020615 | 55 | 207 | 0.0 | 0.0 | 0.00 | 0.57 | 0.57 | 95 | 1014.9 |
| 20260904020109 | 55 | 254 | 0.0 | 0.0 | 0.00 | 0.57 | 0.57 | 95 | 1014.9 |
| 20260904015603 | 55 | 138 | 0.0 | 0.0 | 0.07 | 0.57 | 0.57 | 94 | 1014.9 |
| 20260904015102 | 55 | 169 | 0.0 | 0.0 | 0.07 | 0.57 | 0.57 | 93 | 1014.8 |
| 20260904014556 | 55 | 205 | 0.0 | 0.0 | 0.07 | 0.56 | 0.56 | 93 | 1014.8 |
| 20260904014052 | 54 | 124 | 0.0 | 0.0 | 0.14 | 0.56 | 0.56 | 92 | 1014.7 |
| 20260904013548 | 54 | 72 | 0.0 | 0.0 | 0.21 | 0.54 | 0.54 | 91 | 1014.7 |
| 20260904013045 | 54 | 207 | 0.0 | 0.0 | 0.21 | 0.53 | 0.53 | 90 | 1014.9 |
| 20260904012545 | 54 | 74 | 0.0 | 0.0 | 0.14 | 0.51 | 0.51 | 90 | 1014.9 |
| 20260904012044 | 54 | 65 | 0.0 | 0.0 | 0.21 | 0.50 | 0.50 | 89 | 1015.0 |
| 20260904011538 | 55 | 88 | 0.0 | 0.0 | 0.21 | 0.48 | 0.48 | 89 | 1014.9 |
| 20260904011033 | 55 | 67 | 0.0 | 0.0 | 0.14 | 0.46 | 0.46 | 89 | 1015.0 |
| 20260904010530 | 55 | 150 | 0.0 | 0.0 | 0.21 | 0.45 | 0.45 | 88 | 1014.9 |
| 20260904010026 | 55 | 56 | 0.0 | 0.0 | 0.35 | 0.44 | 0.44 | 87 | 1014.7 |
| 20260904005525 | 55 | 67 | 0.0 | 3.0 | 0.42 | 0.41 | 0.41 | 87 | 1014.8 |
| 20260904005021 | 56 | 46 | 0.0 | 0.0 | 0.64 | 0.38 | 0.38 | 86 | 1014.7 |
| 20260904004517 | 56 | 66 | 0.0 | 3.0 | 0.71 | 0.34 | 0.34 | 85 | 1014.5 |
| 20260904004017 | 56 | 49 | 0.0 | 0.0 | 0.35 | 0.27 | 0.27 | 85 | 1014.6 |
| 20260904003513 | 57 | 34 | 0.0 | 3.0 | 0.14 | 0.22 | 0.22 | 84 | 1014.6 |
| 20260904003008 | 57 | 153 | 0.0 | 0.0 | 0.07 | 0.21 | 0.21 | 82 | 1014.6 |
| 20260904002504 | 57 | 129 | 0.0 | 0.0 | 0.14 | 0.20 | 0.20 | 80 | 1014.8 |
| 20260904002003 | 58 | 205 | 0.0 | 0.0 | 0.21 | 0.20 | 0.20 | 80 | 1014.5 |
| 20260904001459 | 59 | 229 | 0.0 | 3.0 | 0.14 | 0.18 | 0.18 | 79 | 1014.5 |
| 20260904000953 | 60 | 256 | 0.0 | 5.0 | 0.21 | 0.17 | 0.17 | 76 | 1014.3 |
| 20260904000455 | 63 | 213 | 0.0 | 5.0 | 0.14 | 0.15 | 0.15 | 70 | 1014.3 |
| 20260903235948 | 65 | 234 | 0.0 | 0.0 | 0.00 | 0.13 | 0.13 | 65 | 1014.2 |
| 20260903235444 | 67 | 284 | 1.0 | 7.0 | 0.00 | 0.13 | 0.13 | 54 | 1014.2 |
| 20260903234938 | 67 | 280 | 2.0 | 5.0 | 0.00 | 0.13 | 0.13 | 53 | 1014.0 |
| 20260903234434 | 67 | 241 | 0.0 | 3.0 | 0.00 | 0.13 | 0.13 | 52 | 1014.0 |
| 20260903233930 | 68 | 195 | 0.0 | 0.0 | 0.00 | 0.13 | 0.13 | 52 | 1014.0 |
| 20260903233425 | 67 | 214 | 0.0 | 0.0 | 0.00 | 0.13 | 0.13 | 52 | 1013.7 |
| 20260903232920 | 67 | 256 | 0.0 | 3.0 | 0.00 | 0.13 | 0.13 | 52 | 1014.0 |
| 20260903232415 | 68 | 222 | 0.0 | 3.0 | 0.00 | 0.13 | 0.13 | 52 | 1014.0 |
| 20260903231915 | 69 | 276 | 2.0 | 5.0 | 0.00 | 0.13 | 0.13 | 52 | 1014.0 |
| 20260903231409 | 68 | 303 | 2.0 | 5.0 | 0.00 | 0.13 | 0.13 | 51 | 1014.0 |
| 20260903230904 | 69 | 259 | 0.0 | 0.0 | 0.00 | 0.13 | 0.13 | 52 | 1013.9 |
| 20260903230400 | 70 | 242 | 3.0 | 5.0 | 0.00 | 0.13 | 0.13 | 51 | 1014.0 |
| 20260903225856 | 69 | 251 | 0.0 | 0.0 | 0.00 | 0.13 | 0.13 | 53 | 1014.0 |
| 20260903225352 | 70 | 164 | 0.0 | 0.0 | 0.00 | 0.13 | 0.13 | 52 | 1014.1 |
| 20260903224848 | 69 | 206 | 0.0 | 0.0 | 0.00 | 0.13 | 0.13 | 53 | 1014.1 |
| 20260903224344 | 69 | 224 | 0.0 | 0.0 | 0.00 | 0.13 | 0.13 | 53 | 1014.1 |
| 20260903223839 | 68 | 233 | 0.0 | 3.0 | 0.00 | 0.13 | 0.13 | 53 | 1014.2 |
| 20260903223338 | 69 | 255 | 0.0 | 0.0 | 0.00 | 0.13 | 0.13 | 53 | 1014.1 |
| 20260903222833 | 69 | 223 | 0.0 | 3.0 | 0.00 | 0.13 | 0.13 | 54 | 1014.3 |
| 20260903222333 | 68 | 273 | 0.0 | 0.0 | 0.00 | 0.13 | 0.13 | 55 | 1014.1 |
| 20260903221827 | 68 | 124 | 0.0 | 0.0 | 0.00 | 0.13 | 0.13 | 57 | 1014.3 |
| 20260903221326 | 67 | 225 | 0.0 | 0.0 | 0.00 | 0.13 | 0.13 | 58 | 1014.3 |
| 20260903220824 | 67 | 218 | 0.0 | 5.0 | 0.00 | 0.13 | 0.13 | 58 | 1014.3 |
| 20260903220318 | 69 | 270 | 0.0 | 5.0 | 0.00 | 0.13 | 0.13 | 57 | 1014.3 |
| 20260903215811 | 69 | 295 | 5.0 | 7.0 | 0.00 | 0.13 | 0.13 | 54 | 1014.3 |
| 20260903215308 | 69 | 235 | 0.0 | 0.0 | 0.00 | 0.13 | 0.13 | 50 | 1014.2 |
| 20260903214806 | 69 | 208 | 0.0 | 3.0 | 0.00 | 0.13 | 0.13 | 53 | 1014.2 |
| 20260903214302 | 68 | 98 | 1.0 | 5.0 | 0.00 | 0.13 | 0.13 | 50 | 1014.2 |
| 20260903213756 | 68 | 308 | 0.0 | 0.0 | 0.00 | 0.13 | 0.13 | 50 | 1014.4 |
| 20260903213252 | 67 | 293 | 0.0 | 0.0 | 0.00 | 0.13 | 0.13 | 54 | 1014.2 |
| 20260903212748 | 66 | 172 | 0.0 | 0.0 | 0.00 | 0.13 | 0.13 | 58 | 1014.3 |
| 20260903212244 | 65 | 216 | 0.0 | 5.0 | 0.00 | 0.13 | 0.13 | 57 | 1014.4 |
| 20260903211743 | 64 | 135 | 0.0 | 5.0 | 0.00 | 0.13 | 0.13 | 60 | 1014.3 |
| 20260903211240 | 64 | 236 | 0.0 | 10.0 | 0.00 | 0.13 | 0.13 | 63 | 1014.2 |
| 20260903210735 | 63 | 216 | 0.0 | 0.0 | 0.00 | 0.13 | 0.13 | 66 | 1014.3 |
| 20260903210230 | 62 | 223 | 0.0 | 0.0 | 0.00 | 0.13 | 0.13 | 71 | 1014.1 |
| 20260903205725 | 62 | 202 | 0.0 | 0.0 | 0.00 | 0.13 | 0.13 | 72 | 1014.3 |
| 20260903205224 | 62 | 130 | 0.0 | 0.0 | 0.00 | 0.13 | 0.13 | 70 | 1014.2 |
| 20260903204719 | 62 | 281 | 0.0 | 5.0 | 0.00 | 0.13 | 0.13 | 71 | 1014.3 |
| 20260903204216 | 62 | 293 | 0.0 | 0.0 | 0.28 | 0.13 | 0.13 | 73 | 1014.3 |
| 20260903203711 | 64 | 222 | 0.0 | 0.0 | 0.28 | 0.13 | 0.13 | 67 | 1014.3 |
| 20260903203206 | 67 | 220 | 0.0 | 0.0 | 0.00 | 0.08 | 0.08 | 57 | 1014.4 |
| 20260903202700 | 67 | 250 | 0.0 | 5.0 | 0.00 | 0.08 | 0.08 | 55 | 1014.2 |
| 20260903202156 | 68 | 136 | 0.0 | 0.0 | 0.00 | 0.08 | 0.08 | 53 | 1014.1 |
| 20260903201655 | 67 | 162 | 0.0 | 3.0 | 0.00 | 0.08 | 0.08 | 54 | 1014.0 |
| 20260903201150 | 68 | 199 | 0.0 | 5.0 | 0.00 | 0.08 | 0.08 | 54 | 1014.0 |
| 20260903200645 | 67 | 100 | 0.0 | 5.0 | 0.00 | 0.08 | 0.08 | 54 | 1014.0 |
| 20260903200140 | 68 | 170 | 0.0 | 7.0 | 0.00 | 0.08 | 0.08 | 54 | 1014.2 |
| 20260903195636 | 67 | 181 | 0.0 | 5.0 | 0.00 | 0.08 | 0.08 | 56 | 1014.2 |
| 20260903195132 | 67 | 200 | 0.0 | 0.0 | 0.00 | 0.08 | 0.08 | 54 | 1014.2 |
| 20260903194627 | 68 | 215 | 0.0 | 0.0 | 0.00 | 0.08 | 0.08 | 55 | 1014.2 |
| 20260903194126 | 66 | 223 | 1.0 | 10.0 | 0.00 | 0.08 | 0.08 | 57 | 1013.9 |
| 20260903193622 | 66 | 249 | 0.0 | 0.0 | 0.00 | 0.08 | 0.08 | 58 | 1014.1 |
| 20260903193118 | 65 | 230 | 0.0 | 0.0 | 0.00 | 0.08 | 0.08 | 60 | 1014.2 |
| 20260903192614 | 64 | 196 | 0.0 | 0.0 | 0.00 | 0.08 | 0.08 | 61 | 1014.1 |
| 20260903192114 | 64 | 215 | 0.0 | 3.0 | 0.00 | 0.08 | 0.08 | 62 | 1014.1 |
| 20260903191611 | 64 | 199 | 0.0 | 0.0 | 0.00 | 0.08 | 0.08 | 63 | 1014.2 |
| 20260903191105 | 64 | 208 | 0.0 | 0.0 | 0.00 | 0.08 | 0.08 | 62 | 1014.1 |
| 20260903190604 | 64 | 150 | 2.0 | 5.0 | 0.00 | 0.08 | 0.08 | 61 | 1014.1 |
| 20260903190059 | 64 | 314 | 0.0 | 0.0 | 0.00 | 0.08 | 0.08 | 62 | 1014.1 |
| 20260903185554 | 64 | 228 | 0.0 | 0.0 | 0.00 | 0.08 | 0.08 | 62 | 1014.2 |
| 20260903185050 | 64 | 134 | 0.0 | 0.0 | 0.00 | 0.08 | 0.08 | 62 | 1014.2 |
| 20260903184546 | 64 | 148 | 0.0 | 0.0 | 0.00 | 0.08 | 0.08 | 64 | 1014.0 |
| 20260903184041 | 63 | 158 | 0.0 | 0.0 | 0.00 | 0.08 | 0.08 | 62 | 1014.3 |
| 20260903183540 | 63 | 183 | 0.0 | 0.0 | 0.00 | 0.08 | 0.08 | 64 | 1014.2 |
| 20260903183035 | 63 | 161 | 0.0 | 0.0 | 0.00 | 0.08 | 0.08 | 65 | 1014.1 |
| 20260903182533 | 63 | 161 | 0.0 | 0.0 | 0.00 | 0.08 | 0.08 | 66 | 1014.2 |
| 20260903182031 | 63 | 186 | 0.0 | 0.0 | 0.00 | 0.08 | 0.08 | 67 | 1014.0 |
| 20260903181529 | 63 | 151 | 0.0 | 0.0 | 0.00 | 0.08 | 0.08 | 74 | 1014.2 |
| 20260903181023 | 63 | 241 | 0.0 | 0.0 | 0.00 | 0.08 | 0.08 | 73 | 1014.1 |
| 20260903180519 | 62 | 151 | 0.0 | 0.0 | 0.00 | 0.08 | 0.08 | 75 | 1014.3 |
| 20260903180018 | 62 | 202 | 0.0 | 0.0 | 0.00 | 0.08 | 0.08 | 76 | 1014.1 |
| 20260903175517 | 62 | 177 | 0.0 | 0.0 | 0.00 | 0.08 | 0.08 | 78 | 1014.2 |
| 20260903175017 | 61 | 148 | 0.0 | 0.0 | 0.00 | 0.08 | 0.08 | 79 | 1014.1 |
| 20260903174512 | 61 | 190 | 0.0 | 0.0 | 0.00 | 0.08 | 0.08 | 82 | 1014.2 |
| 20260903174012 | 60 | 149 | 0.0 | 0.0 | 0.00 | 0.08 | 0.08 | 83 | 1014.1 |
| 20260903173507 | 58 | 137 | 0.0 | 0.0 | 0.00 | 0.08 | 0.08 | 83 | 1014.1 |
| 20260903173003 | 58 | 146 | 0.0 | 0.0 | 0.00 | 0.08 | 0.08 | 84 | 1014.0 |
| 20260903172457 | 57 | 135 | 0.0 | 0.0 | 0.00 | 0.08 | 0.08 | 84 | 1014.1 |
| 20260903171953 | 57 | 152 | 0.0 | 0.0 | 0.00 | 0.08 | 0.08 | 86 | 1014.1 |
| 20260903171448 | 57 | 130 | 0.0 | 0.0 | 0.00 | 0.08 | 0.08 | 86 | 1014.1 |
| 20260903170942 | 57 | 136 | 0.0 | 0.0 | 0.00 | 0.08 | 0.08 | 86 | 1014.0 |
| 20260903170437 | 56 | 188 | 0.0 | 0.0 | 0.00 | 0.08 | 0.08 | 87 | 1013.9 |
| 20260903165936 | 56 | 131 | 0.0 | 0.0 | 0.00 | 0.08 | 0.08 | 87 | 1014.1 |
| 20260903165430 | 56 | 138 | 0.0 | 0.0 | 0.00 | 0.08 | 0.08 | 88 | 1014.2 |
| 20260903164925 | 56 | 125 | 0.0 | 0.0 | 0.00 | 0.08 | 0.08 | 89 | 1014.0 |
| 20260903164420 | 55 | 127 | 0.0 | 0.0 | 0.00 | 0.08 | 0.08 | 90 | 1014.0 |
| 20260903163919 | 55 | 141 | 0.0 | 0.0 | 0.00 | 0.08 | 0.08 | 92 | 1014.0 |
| 20260903163416 | 55 | 144 | 0.0 | 0.0 | 0.00 | 0.08 | 0.08 | 93 | 1014.1 |
| 20260903162912 | 55 | 146 | 0.0 | 0.0 | 0.00 | 0.08 | 0.08 | 93 | 1014.0 |
| 20260903162408 | 55 | 113 | 0.0 | 0.0 | 0.00 | 0.08 | 0.08 | 95 | 1014.0 |
| 20260903161903 | 54 | 186 | 0.0 | 0.0 | 0.00 | 0.08 | 0.08 | 95 | 1013.8 |
| 20260903161358 | 54 | 148 | 0.0 | 0.0 | 0.00 | 0.08 | 0.08 | 96 | 1014.1 |
| 20260903160854 | 54 | 159 | 0.0 | 0.0 | 0.00 | 0.08 | 0.08 | 96 | 1014.1 |
| 20260903160353 | 54 | 183 | 0.0 | 0.0 | 0.00 | 0.08 | 0.08 | 96 | 1014.1 |
| 20260903155852 | 54 | 126 | 0.0 | 0.0 | 0.00 | 0.08 | 0.08 | 96 | 1014.1 |
| 20260903155347 | 54 | 259 | 0.0 | 0.0 | 0.00 | 0.08 | 0.08 | 96 | 1014.2 |
| 20260903154843 | 54 | 176 | 0.0 | 0.0 | 0.00 | 0.08 | 0.08 | 96 | 1014.1 |
| 20260903154339 | 53 | 81 | 0.0 | 0.0 | 0.00 | 0.08 | 0.08 | 96 | 1013.9 |
| 20260903153833 | 53 | 130 | 0.0 | 0.0 | 0.00 | 0.08 | 0.08 | 96 | 1014.0 |
| 20260903153329 | 53 | 119 | 0.0 | 0.0 | 0.00 | 0.08 | 0.08 | 96 | 1014.0 |
| 20260903152826 | 53 | 195 | 0.0 | 0.0 | 0.00 | 0.08 | 0.08 | 96 | 1014.0 |
| 20260903152321 | 53 | 145 | 0.0 | 0.0 | 0.00 | 0.08 | 0.08 | 96 | 1014.0 |
| 20260903151816 | 53 | 139 | 0.0 | 0.0 | 0.00 | 0.08 | 0.08 | 96 | 1014.0 |
| 20260903151311 | 53 | 122 | 0.0 | 0.0 | 0.00 | 0.08 | 0.08 | 96 | 1014.0 |
| 20260903150806 | 53 | 150 | 0.0 | 0.0 | 0.00 | 0.08 | 0.08 | 97 | 1014.0 |
| 20260903150301 | 53 | 165 | 0.0 | 0.0 | 0.00 | 0.08 | 0.08 | 97 | 1013.8 |
| 20260903145755 | 53 | 190 | 0.0 | 0.0 | 0.00 | 0.08 | 0.08 | 97 | 1013.7 |
| 20260903145251 | 53 | 179 | 0.0 | 0.0 | 0.00 | 0.08 | 0.08 | 97 | 1013.8 |
| 20260903144749 | 53 | 190 | 0.0 | 0.0 | 0.00 | 0.08 | 0.08 | 97 | 1013.8 |
| 20260903144245 | 53 | 202 | 0.0 | 0.0 | 0.00 | 0.08 | 0.08 | 96 | 1013.7 |
| 20260903143741 | 52 | 204 | 0.0 | 0.0 | 0.00 | 0.08 | 0.08 | 96 | 1013.7 |
| 20260903143237 | 52 | 165 | 0.0 | 0.0 | 0.00 | 0.08 | 0.08 | 96 | 1013.6 |
| 20260903142733 | 52 | 151 | 0.0 | 0.0 | 0.00 | 0.08 | 0.08 | 96 | 1013.7 |
| 20260903142229 | 52 | 192 | 0.0 | 0.0 | 0.07 | 0.08 | 0.08 | 95 | 1013.6 |
| 20260903141724 | 52 | 187 | 0.0 | 0.0 | 0.07 | 0.08 | 0.08 | 95 | 1013.6 |
| 20260903141219 | 52 | 153 | 0.0 | 0.0 | 0.00 | 0.07 | 0.07 | 95 | 1013.6 |
| 20260903140715 | 52 | 141 | 0.0 | 0.0 | 0.00 | 0.07 | 0.07 | 95 | 1013.6 |
| 20260903140215 | 52 | 146 | 0.0 | 0.0 | 0.00 | 0.07 | 0.07 | 95 | 1013.7 |
| 20260903135711 | 52 | 183 | 0.0 | 0.0 | 0.07 | 0.07 | 0.07 | 94 | 1013.8 |
| 20260903135206 | 52 | 199 | 0.0 | 0.0 | 0.07 | 0.07 | 0.07 | 94 | 1013.5 |
| 20260903134704 | 52 | 207 | 0.0 | 0.0 | 0.00 | 0.06 | 0.06 | 93 | 1013.7 |
| 20260903134201 | 52 | 186 | 0.0 | 0.0 | 0.00 | 0.06 | 0.06 | 93 | 1013.4 |
| 20260903133658 | 52 | 193 | 0.0 | 0.0 | 0.07 | 0.06 | 0.06 | 92 | 1013.5 |
| 20260903133154 | 52 | 192 | 0.0 | 0.0 | 0.00 | 0.05 | 0.05 | 92 | 1013.6 |
| 20260903132649 | 52 | 184 | 0.0 | 0.0 | 0.00 | 0.05 | 0.05 | 91 | 1013.5 |
| 20260903132149 | 52 | 209 | 0.0 | 0.0 | 0.00 | 0.05 | 0.05 | 91 | 1013.2 |
| 20260903131643 | 52 | 217 | 0.0 | 0.0 | 0.07 | 0.05 | 0.05 | 91 | 1013.2 |
| 20260903131143 | 52 | 222 | 0.0 | 0.0 | 0.07 | 0.05 | 0.05 | 90 | 1013.3 |
| 20260903130638 | 52 | 186 | 0.0 | 0.0 | 0.00 | 0.04 | 0.04 | 90 | 1013.1 |
| 20260903130132 | 52 | 181 | 0.0 | 0.0 | 0.00 | 0.04 | 0.04 | 90 | 1012.9 |
| 20260903125631 | 52 | 183 | 0.0 | 0.0 | 0.07 | 0.04 | 0.04 | 89 | 1013.0 |
| 20260903125126 | 52 | 197 | 0.0 | 0.0 | 0.14 | 0.04 | 0.04 | 89 | 1013.2 |
| 20260903124626 | 52 | 210 | 0.0 | 0.0 | 0.07 | 0.02 | 0.02 | 89 | 1013.1 |
| 20260903124125 | 52 | 183 | 0.0 | 0.0 | 0.07 | 0.01 | 0.01 | 89 | 1013.1 |
| 20260903123620 | 52 | 140 | 0.0 | 0.0 | 0.07 | 0.01 | 0.01 | 88 | 1013.2 |
| 20260903123119 | 52 | 164 | 0.0 | 0.0 | 0.00 | 0.00 | 0.00 | 88 | 1013.2 |
| 20260903122619 | 52 | 179 | 0.0 | 0.0 | 0.00 | 0.00 | 0.00 | 88 | 1013.2 |
| 20260903122119 | 52 | 126 | 0.0 | 0.0 | 0.00 | 0.00 | 0.00 | 88 | 1013.2 |
| 20260903121618 | 52 | 165 | 0.0 | 0.0 | 0.00 | 0.00 | 0.00 | 88 | 1013.2 |
| 20260903121114 | 52 | 184 | 0.0 | 0.0 | 0.00 | 0.00 | 0.00 | 88 | 1013.2 |
| 20260903120613 | 52 | 152 | 0.0 | 0.0 | 0.00 | 0.00 | 0.00 | 88 | 1012.7 |
| 20260903120108 | 52 | 227 | 0.0 | 0.0 | 0.00 | 0.00 | 0.00 | 87 | 1012.7 |
| 20260903115605 | 52 | 190 | 0.0 | 0.0 | 0.00 | 0.00 | 0.00 | 87 | 1012.7 |
| 20260903115101 | 52 | 192 | 0.0 | 0.0 | 0.00 | 0.00 | 0.00 | 87 | 1012.5 |
| 20260903114556 | 52 | 194 | 0.0 | 0.0 | 0.00 | 0.00 | 0.00 | 87 | 1012.8 |
| 20260903114052 | 52 | 183 | 0.0 | 0.0 | 0.00 | 0.00 | 0.00 | 87 | 1012.5 |
| 20260903113547 | 52 | 195 | 0.0 | 0.0 | 0.00 | 0.00 | 0.00 | 87 | 1012.5 |
| 20260903113043 | 52 | 150 | 0.0 | 0.0 | 0.00 | 0.00 | 0.00 | 87 | 1012.6 |
| 20260903112539 | 52 | 165 | 0.0 | 0.0 | 0.00 | 0.00 | 0.00 | 87 | 1012.6 |
| 20260903112033 | 52 | 195 | 0.0 | 0.0 | 0.00 | 0.00 | 0.00 | 87 | 1012.5 |
| 20260903111532 | 52 | 148 | 0.0 | 0.0 | 0.00 | 0.00 | 0.00 | 87 | 1012.6 |
| 20260903111029 | 52 | 179 | 0.0 | 0.0 | 0.00 | 0.00 | 0.00 | 87 | 1012.7 |
| 20260903110525 | 52 | 182 | 0.0 | 0.0 | 0.00 | 0.00 | 0.00 | 86 | 1012.5 |
| 20260903110024 | 52 | 136 | 0.0 | 0.0 | 0.00 | 0.00 | 0.00 | 87 | 1012.5 |
| 20260903105519 | 52 | 147 | 0.0 | 0.0 | 0.00 | 0.00 | 0.00 | 87 | 1012.6 |
| 20260903105014 | 52 | 150 | 0.0 | 0.0 | 0.00 | 0.00 | 0.00 | 86 | 1012.6 |
| 20260903104508 | 52 | 137 | 0.0 | 0.0 | 0.00 | 0.00 | 0.00 | 86 | 1012.5 |